Location: Il Ritiro
(43.4167°N, 13.1333°E)
Time: 07:53:13
(UTC+00:00)

ATLAS 5 CENTAUR R/B - Pass Details

Date: 05 July 2020
Orbit: 534 x 1124 km, 63.4° (Epoch: 30 July)

Event Time Altitude Azimuth Distance (km) Brightness Sun altitude
Rises 19:20:45 0° 193° (SSW) 2,672 4.6 -5.2°
Reaches altitude 10° 19:22:58 10° 185° (S) 1,807 3.6 -5.6°
Maximum altitude 19:26:40 36° 117° (ESE) 911 2.0 -6.1°
Drops below altitude 10° 19:30:43 10° 51° (NE) 1,991 4.1 -6.6°
Sets 19:33:16 0° 43° (NE) 2,988 5.0 -7.0°
